Location: downtown San Diego
(32.7310°N, 117.1990°W)
Time: 23:51:20
(UTC-07:00)

NOSS 3-2 (C) - Pass Details

Date: 19 May 2017
Orbit: 878 x 1335 km, 63.4° (Epoch: 21 July)

Event Time Altitude Azimuth Distance (km) Brightness Sun altitude
Rises 21:27:01 0° 329° (NNW) 4,076 8.1 -19.1°
Reaches altitude 10° 21:29:39 10° 329° (NNW) 3,167 7.2 -19.5°
Maximum altitude 21:37:26 86° 242° (WSW) 1,297 4.1 -20.7°
Enters shadow 21:41:51 31° 155° (SSE) 2,117 4.7 -21.4°
